• In Uzbekistan
  • List of Countries
  • For 7 days
  • Water Temperature
  • Satellite Maps
  • Weather Map
  • Weather Widgets
  • user-avatar
    Login

    Hourly Weather Mutare

    Today, 20 July, Friday

    Time Temperature Precipitation Wind Pressure Humidity
    00:00 +9°C° 0 mm 1 mps 658 mmHg 77%
    01:00 +8°C° 0 mm 1 mps 658 mmHg 79%
    02:00 +7°C° 0 mm 0 mps 658 mmHg 81%
    03:00 +7°C° 0 mm 0 mps 658 mmHg 81%
    04:00 +6°C° 0 mm 0 mps 657 mmHg 82%
    05:00 +6°C° 0 mm 0 mps 657 mmHg 83%
    06:00 +8°C° 0 mm 0 mps 658 mmHg 77%
    07:00 +9°C° 0 mm 0 mps 659 mmHg 70%
    08:00 +12°C° 0 mm 0 mps 660 mmHg 60%
    09:00 +14°C° 0 mm 1 mps 660 mmHg 53%
    10:00 +16°C° 0 mm 1 mps 660 mmHg 46%
    11:00 +19°C° 0 mm 1 mps 661 mmHg 39%
    12:00 +19°C° 0 mm 2 mps 660 mmHg 39%
    13:00 +19°C° 0 mm 2 mps 660 mmHg 38%
    14:00 +19°C° 0 mm 2 mps 659 mmHg 39%
    15:00 +18°C° 0 mm 2 mps 659 mmHg 44%
    16:00 +17°C° 0 mm 2 mps 659 mmHg 48%
    17:00 +16°C° 0 mm 2 mps 658 mmHg 52%
    18:00 +15°C° 0 mm 1 mps 658 mmHg 59%
    19:00 +13°C° 0 mm 1 mps 658 mmHg 67%
    20:00 +11°C° 0 mm 1 mps 658 mmHg 74%
    21:00 +11°C° 0 mm 1 mps 658 mmHg 78%
    22:00 +10°C° 0 mm 0 mps 658 mmHg 81%
    23:00 +9°C° 0 mm 0 mps 658 mmHg 84%

    Tomorrow, 21 July, Saturday

    Time Temperature Precipitation Wind Pressure Humidity
    00:00 +9°C° 0 mm 0 mps 658 mmHg 86%
    01:00 +8°C° 0 mm 0 mps 658 mmHg 88%
    02:00 +8°C° 0 mm 0 mps 658 mmHg 89%
    03:00 +8°C° 0 mm 0 mps 658 mmHg 90%
    04:00 +8°C° 0 mm 0 mps 657 mmHg 91%
    05:00 +8°C° 0 mm 0 mps 657 mmHg 92%
    06:00 +9°C° 0 mm 0 mps 658 mmHg 86%
    07:00 +10°C° 0 mm 0 mps 659 mmHg 79%
    08:00 +12°C° 0 mm 0 mps 659 mmHg 73%
    09:00 +15°C° 0 mm 1 mps 660 mmHg 64%
    10:00 +18°C° 0 mm 1 mps 661 mmHg 54%
    11:00 +19°C° 0 mm 2 mps 661 mmHg 45%
    12:00 +19°C° 0 mm 2 mps 661 mmHg 41%
    13:00 +20°C° 0 mm 2 mps 661 mmHg 37%
    14:00 +21°C° 0 mm 2 mps 660 mmHg 34%
    15:00 +20°C° 0 mm 2 mps 660 mmHg 36%
    16:00 +19°C° 0 mm 2 mps 660 mmHg 38%
    17:00 +18°C° 0 mm 2 mps 659 mmHg 40%
    18:00 +16°C° 0 mm 2 mps 659 mmHg 46%
    19:00 +14°C° 0 mm 1 mps 659 mmHg 52%
    20:00 +12°C° 0 mm 1 mps 659 mmHg 58%
    21:00 +11°C° 0 mm 1 mps 659 mmHg 59%
    22:00 +11°C° 0 mm 1 mps 659 mmHg 60%
    23:00 +10°C° 0 mm 1 mps 659 mmHg 61%

    Day after tomorrow, 22 July, Sunday

    Time Temperature Precipitation Wind Pressure Humidity
    00:00 +10°C° 0 mm 1 mps 659 mmHg 62%
    01:00 +10°C° 0 mm 1 mps 659 mmHg 63%
    02:00 +10°C° 0 mm 1 mps 659 mmHg 64%
    03:00 +10°C° 0 mm 1 mps 659 mmHg 69%
    04:00 +9°C° 0 mm 1 mps 659 mmHg 73%
    05:00 +8°C° 0 mm 0 mps 659 mmHg 77%
    06:00 +10°C° 0 mm 0 mps 659 mmHg 75%
    07:00 +11°C° 0 mm 0 mps 660 mmHg 72%
    08:00 +13°C° 0 mm 1 mps 661 mmHg 69%
    09:00 +15°C° 0 mm 1 mps 662 mmHg 62%
    10:00 +17°C° 0 mm 2 mps 662 mmHg 56%
    11:00 +19°C° 0 mm 2 mps 663 mmHg 49%
    12:00 +20°C° 0 mm 3 mps 662 mmHg 47%
    13:00 +20°C° 0 mm 3 mps 662 mmHg 45%
    14:00 +20°C° 0 mm 3 mps 661 mmHg 43%
    15:00 +19°C° 0 mm 3 mps 661 mmHg 47%
    16:00 +18°C° 0 mm 3 mps 661 mmHg 52%
    17:00 +17°C° 0 mm 2 mps 660 mmHg 56%
    18:00 +16°C° 0.1 mm 2 mps 660 mmHg 66%
    19:00 +14°C° 0.1 mm 1 mps 660 mmHg 76%
    20:00 +13°C° 0.1 mm 1 mps 660 mmHg 85%
    21:00 +12°C° 0 mm 1 mps 660 mmHg 87%
    22:00 +12°C° 0 mm 1 mps 660 mmHg 90%
    23:00 +12°C° 0 mm 1 mps 660 mmHg 92%

    23 July, Monday

    Time Temperature Precipitation Wind Pressure Humidity
    00:00 +11°C° 0 mm 1 mps 660 mmHg 93%
    01:00 +11°C° 0 mm 1 mps 660 mmHg 93%
    02:00 +11°C° 0 mm 1 mps 659 mmHg 94%
    03:00 +11°C° 0 mm 1 mps 659 mmHg 94%
    04:00 +11°C° 0 mm 1 mps 659 mmHg 94%
    05:00 +11°C° 0 mm 1 mps 659 mmHg 94%
    06:00 +11°C° 0 mm 1 mps 660 mmHg 90%
    07:00 +12°C° 0 mm 1 mps 660 mmHg 85%
    08:00 +13°C° 0 mm 1 mps 661 mmHg 80%
    09:00 +15°C° 0 mm 1 mps 662 mmHg 70%
    10:00 +17°C° 0 mm 2 mps 662 mmHg 60%
    11:00 +19°C° 0 mm 2 mps 663 mmHg 50%
    12:00 +19°C° 0 mm 3 mps 662 mmHg 46%
    13:00 +20°C° 0 mm 3 mps 662 mmHg 41%
    14:00 +21°C° 0 mm 3 mps 661 mmHg 37%
    15:00 +20°C° 0 mm 3 mps 661 mmHg 40%
    16:00 +19°C° 0 mm 3 mps 660 mmHg 44%
    17:00 +18°C° 0 mm 2 mps 660 mmHg 47%
    18:00 +16°C° 0 mm 2 mps 660 mmHg 57%
    19:00 +14°C° 0 mm 1 mps 660 mmHg 68%
    20:00 +12°C° 0 mm 1 mps 659 mmHg 78%
    21:00 +12°C° 0 mm 1 mps 659 mmHg 81%
    22:00 +12°C° 0 mm 1 mps 660 mmHg 84%
    23:00 +11°C° 0 mm 1 mps 660 mmHg 87%

    24 July, Tuesday

    Time Temperature Precipitation Wind Pressure Humidity
    00:00 +11°C° 0 mm 1 mps 659 mmHg 89%
    01:00 +11°C° 0 mm 1 mps 659 mmHg 90%
    02:00 +11°C° 0 mm 1 mps 658 mmHg 92%
    03:00 +11°C° 0 mm 1 mps 659 mmHg 92%
    04:00 +10°C° 0 mm 0 mps 659 mmHg 93%
    05:00 +10°C° 0 mm 0 mps 659 mmHg 93%
    06:00 +11°C° 0 mm 0 mps 659 mmHg 88%
    07:00 +13°C° 0 mm 1 mps 660 mmHg 83%
    08:00 +14°C° 0 mm 1 mps 661 mmHg 77%
    09:00 +16°C° 0 mm 1 mps 661 mmHg 66%
    10:00 +19°C° 0 mm 1 mps 661 mmHg 56%
    11:00 +21°C° 0 mm 1 mps 662 mmHg 45%
    12:00 +22°C° 0 mm 1 mps 661 mmHg 40%
    13:00 +21°C° 0 mm 2 mps 661 mmHg 35%
    14:00 +23°C° 0 mm 2 mps 660 mmHg 29%
    15:00 +21°C° 0 mm 2 mps 660 mmHg 32%
    16:00 +20°C° 0 mm 2 mps 659 mmHg 35%
    17:00 +19°C° 0 mm 2 mps 659 mmHg 37%
    18:00 +18°C° 0 mm 1 mps 658 mmHg 44%
    19:00 +15°C° 0 mm 1 mps 658 mmHg 52%
    20:00 +12°C° 0 mm 1 mps 658 mmHg 59%
    21:00 +12°C° 0 mm 1 mps 658 mmHg 62%
    22:00 +11°C° 0 mm 1 mps 658 mmHg 65%
    23:00 +11°C° 0 mm 1 mps 657 mmHg 68%

    25 July, Wednesday

    Time Temperature Precipitation Wind Pressure Humidity
    00:00 +10°C° 0 mm 1 mps 657 mmHg 70%
    01:00 +10°C° 0 mm 1 mps 657 mmHg 72%
    02:00 +9°C° 0 mm 1 mps 656 mmHg 75%
    03:00 +9°C° 0 mm 1 mps 656 mmHg 77%
    04:00 +9°C° 0 mm 1 mps 656 mmHg 78%
    05:00 +8°C° 0 mm 1 mps 656 mmHg 80%
    06:00 +10°C° 0 mm 1 mps 657 mmHg 73%
    07:00 +12°C° 0 mm 1 mps 658 mmHg 65%
    08:00 +12°C° 0 mm 0 mps 659 mmHg 58%
    09:00 +16°C° 0 mm 1 mps 659 mmHg 47%
    10:00 +20°C° 0 mm 1 mps 660 mmHg 37%
    11:00 +22°C° 0 mm 1 mps 660 mmHg 26%
    12:00 +23°C° 0 mm 1 mps 660 mmHg 24%
    13:00 +24°C° 0 mm 2 mps 659 mmHg 21%
    14:00 +24°C° 0 mm 2 mps 658 mmHg 19%
    15:00 +23°C° 0 mm 2 mps 658 mmHg 22%
    16:00 +22°C° 0 mm 1 mps 657 mmHg 25%
    17:00 +20°C° 0 mm 1 mps 657 mmHg 29%
    18:00 +18°C° 0 mm 1 mps 657 mmHg 35%
    19:00 +15°C° 0 mm 1 mps 657 mmHg 41%
    20:00 +13°C° 0 mm 1 mps 656 mmHg 47%
    21:00 +12°C° 0 mm 1 mps 656 mmHg 51%
    22:00 +12°C° 0 mm 1 mps 656 mmHg 55%
    23:00 +11°C° 0 mm 1 mps 656 mmHg 58%
    Show more